Portada
METAR-TAF:

METAR-TAF

Aeropuertos :

Anchorage, Alaska, Estados Unidos

latitud: 61-13N, longitud: 149-51W, altitud: 42 m

Observación

El informe se hizo hace 43 minutos, a las 19:53 UTC
Viento 5 kt del norte-noroeste
Temperatura 3°C
Humedad 35%
Presión 1023 hPa
Visibilidad: 16.1 km
Cielo despejado

METAR: PAMR 141953Z 34005KT 10SM CLR 03/M11 A3020 RMK AO2 SLP229 T00331111

Hora: 12:36 (20:36 UTC)


TAF: falta

Observaciones y pronósticos meteorológicos de más de 4000 aeropuertos (mensajes METAR y TAF).

Los puntos amarillos y rojos representan las estaciones disponibles.

Ponga el ratón en el punto deseado para ver el nombre de la estación.

Haga clic para ver las observaciones y los pronósticos meteorológicos.

Para cambiar el mapa : haga clic en los botones verdes con una cruz de color negro para hacer un zoom, en el botón verde con un guión para alejar o en las flechas verdes para mapas adyacentes.


METAR-TAF: